Location: Pian di Sc�
(43.6333°N, 11.5500°E)
Time: 13:31:02
(UTC+00:00)

Cosmos 1758 Rocket - Pass Details

Date: 07 August 2020
Orbit: 603 x 635 km, 82.5° (Epoch: 25 September)

Event Time Altitude Azimuth Distance (km) Brightness Sun altitude
Rises 03:27:05 0° 346° (NNW) 2,866 7.2 -7.7°
Reaches altitude 10° 03:29:20 10° 342° (NNW) 1,957 6.3 -7.3°
Maximum altitude 03:33:32 53° 266° (W) 748 3.7 -6.7°
Drops below altitude 10° 03:37:43 10° 190° (S) 1,948 5.8 -6.0°
Sets 03:39:58 0° 185° (S) 2,850 6.6 -5.7°
